| time (UTC) | temp C | wind direction | speed KPH | gust KPH | rain 1hr cm | rain 24hr cm | rain mn cm | humidity % | barometer mb |
| 20260509013025 | 23 | 195 | 1.6 | 6.4 | 0.00 | 0.08 | 0.05 | 73 | |
| 20260509011547 | 23 | 201 | 3.2 | 11.3 | 0.00 | 0.08 | 0.00 | 69 | |
| 20260509010025 | 23 | 223 | 1.6 | 1.6 | 0.00 | 0.08 | 0.00 | 74 | |
| 20260509004514 | 23 | 25 | 1.6 | 3.2 | 0.00 | 0.08 | 0.00 | 74 | |
| 20260509001507 | 23 | 129 | 0.0 | 3.2 | 0.00 | 0.08 | 0.00 | 72 | |
| 20260509000028 | 23 | 129 | 0.0 | 1.6 | 0.00 | 0.08 | 0.00 | 71 | |
| 20260508234524 | 23 | 129 | 1.6 | 6.4 | 0.00 | 0.08 | 0.00 | 66 | |
| 20260508233002 | 23 | 112 | 0.0 | 6.4 | 0.00 | 0.08 | 0.00 | 71 | |
| 20260508231503 | 23 | 132 | 1.6 | 3.2 | 0.00 | 0.08 | 0.00 | 69 | |
| 20260508230027 | 23 | 344 | 0.0 | 1.6 | 0.00 | 0.08 | 0.00 | 71 | |
| 20260508224527 | 23 | 175 | 0.0 | 1.6 | 0.00 | 0.08 | 0.00 | 73 | |
| 20260508223006 | 24 | 175 | 0.0 | 3.2 | 0.00 | 0.08 | 0.00 | 72 | |
| 20260508221506 | 24 | 202 | 3.2 | 3.2 | 0.00 | 0.08 | 0.00 | 69 | |
| 20260508220030 | 24 | 208 | 0.0 | 4.8 | 0.00 | 0.08 | 0.00 | 70 | |
| 20260508214530 | 24 | 263 | 3.2 | 4.8 | 0.00 | 0.08 | 0.00 | 72 | |
| 20260508213040 | 24 | 236 | 0.0 | 1.6 | 0.00 | 0.08 | 0.00 | 68 | |
| 20260508211515 | 25 | 185 | 0.0 | 1.6 | 0.00 | 0.08 | 0.00 | 63 | |
| 20260508210015 | 25 | 185 | 3.2 | 3.2 | 0.00 | 0.08 | 0.00 | 63 | |
| 20260508204535 | 25 | 194 | 0.0 | 4.8 | 0.00 | 0.08 | 0.00 | 64 | |
| 20260508203012 | 25 | 189 | 3.2 | 4.8 | 0.00 | 0.08 | 0.00 | 61 | |
| 20260508201511 | 25 | 168 | 4.8 | 4.8 | 0.00 | 0.08 | 0.00 | 63 | |
| 20260508200036 | 25 | 0 | 0.0 | 4.8 | 0.00 | 0.08 | 0.00 | 61 | |
| 20260508194536 | 26 | 46 | 0.0 | 4.8 | 0.00 | 0.08 | 0.00 | 61 | |
| 20260508193014 | 26 | 251 | 0.0 | 8.0 | 0.00 | 0.08 | 0.00 | 57 | |
| 20260508191514 | 27 | 198 | 6.4 | 9.7 | 0.00 | 0.08 | 0.00 | 54 | |
| 20260508190040 | 27 | 282 | 6.4 | 9.7 | 0.00 | 0.08 | 0.00 | 54 | |
| 20260508184539 | 27 | 223 | 4.8 | 8.0 | 0.00 | 0.08 | 0.00 | 56 | |
| 20260508183017 | 27 | 188 | 1.6 | 9.7 | 0.00 | 0.08 | 0.00 | 56 | |
| 20260508181517 | 27 | 224 | 3.2 | 12.9 | 0.00 | 0.08 | 0.08 | 56 | |
| 20260508174524 | 27 | 215 | 12.9 | 16.1 | 0.00 | 0.08 | 0.08 | 56 | |
| 20260508173016 | 27 | 266 | 11.3 | 11.3 | 0.00 | 0.08 | 0.08 | 57 | |
| 20260508171517 | 27 | 207 | 9.7 | 12.9 | 0.00 | 0.08 | 0.08 | 58 | |
| 20260508170035 | 27 | 222 | 12.9 | 14.5 | 0.00 | 0.08 | 0.08 | 57 | |
| 20260508164513 | 27 | 237 | 9.7 | 11.3 | 0.00 | 0.08 | 0.08 | 58 | |
| 20260508163011 | 28 | 167 | 11.3 | 16.1 | 0.00 | 0.08 | 0.08 | 58 | |
| 20260508161529 | 28 | 214 | 6.4 | 11.3 | 0.00 | 0.08 | 0.08 | 60 | |
| 20260508154515 | 28 | 204 | 4.8 | 12.9 | 0.00 | 0.08 | 0.08 | 58 | |
| 20260508153014 | 28 | 356 | 8.0 | 11.3 | 0.00 | 0.08 | 0.08 | 58 | |
| 20260508151534 | 28 | 307 | 4.8 | 6.4 | 0.00 | 0.08 | 0.08 | 59 | |
| 20260508150009 | 28 | 241 | 1.6 | 6.4 | 0.00 | 0.08 | 0.08 | 59 | |
| 20260508144508 | 29 | 237 | 4.8 | 17.7 | 0.00 | 0.08 | 0.08 | 57 | |
| 20260508143028 | 30 | 222 | 19.3 | 22.5 | 0.00 | 0.08 | 0.08 | 56 | |
| 20260508141508 | 30 | 252 | 9.7 | 20.9 | 0.00 | 0.08 | 0.08 | 55 | |
| 20260508140008 | 30 | 357 | 8.0 | 17.7 | 0.00 | 0.08 | 0.08 | 56 | |
| 20260508134509 | 30 | 163 | 9.7 | 16.1 | 0.00 | 0.08 | 0.08 | 55 | |
| 20260508133032 | 31 | 208 | 3.2 | 22.5 | 0.00 | 0.08 | 0.08 | 56 | |
| 20260508131511 | 31 | 186 | 12.9 | 29.0 | 0.00 | 0.08 | 0.08 | 55 | |
| 20260508130051 | 31 | 285 | 20.9 | 27.4 | 0.00 | 0.08 | 0.08 | 52 | |
| 20260508124527 | 32 | 276 | 20.9 | 20.9 | 0.00 | 0.08 | 0.08 | 51 | |
| 20260508123006 | 33 | 151 | 11.3 | 19.3 | 0.00 | 0.08 | 0.08 | 50 | |
| 20260508121545 | 34 | 228 | 6.4 | 14.5 | 0.00 | 0.08 | 0.08 | 37 | |
| 20260508120022 | 35 | 220 | 8.0 | 14.5 | 0.00 | 0.08 | 0.08 | 35 | |
| 20260508114518 | 35 | 221 | 3.2 | 14.5 | 0.00 | 0.08 | 0.08 | 36 | |
| 20260508113038 | 35 | 45 | 4.8 | 16.1 | 0.00 | 0.08 | 0.08 | 37 | |
| 20260508111514 | 36 | 204 | 11.3 | 12.9 | 0.00 | 0.08 | 0.08 | 35 | |
| 20260508110008 | 36 | 256 | 12.9 | 14.5 | 0.00 | 0.08 | 0.08 | 34 | |
| 20260508104527 | 36 | 197 | 8.0 | 19.3 | 0.00 | 0.08 | 0.08 | 35 | |
| 20260508103004 | 36 | 214 | 3.2 | 17.7 | 0.00 | 0.08 | 0.08 | 34 | |
| 20260508101548 | 37 | 264 | 9.7 | 12.9 | 0.00 | 0.08 | 0.08 | 33 | |
| 20260508100023 | 37 | 248 | 12.9 | 12.9 | 0.00 | 0.08 | 0.08 | 33 | |
| 20260508094520 | 37 | 176 | 9.7 | 16.1 | 0.00 | 0.08 | 0.08 | 34 | |
| 20260508093041 | 36 | 196 | 8.0 | 17.7 | 0.00 | 0.13 | 0.13 | 35 | |
| 20260508091522 | 36 | 356 | 9.7 | 19.3 | 0.00 | 0.13 | 0.08 | 37 | |
| 20260508090014 | 36 | 201 | 3.2 | 17.7 | 0.00 | 0.13 | 0.08 | 39 | |
| 20260508084532 | 36 | 80 | 4.8 | 12.9 | 0.00 | 0.13 | 0.08 | 37 | |
| 20260508083010 | 36 | 63 | 8.0 | 12.9 | 0.00 | 0.13 | 0.08 | 39 | |
| 20260508081508 | 35 | 262 | 9.7 | 17.7 | 0.00 | 0.13 | 0.08 | 37 | |
| 20260508080028 | 35 | 198 | 11.3 | 17.7 | 0.00 | 0.13 | 0.08 | 37 | |
| 20260508074509 | 35 | 227 | 9.7 | 22.5 | 0.00 | 0.13 | 0.08 | 40 | |
| 20260508073009 | 34 | 128 | 8.0 | 17.7 | 0.00 | 0.13 | 0.08 | 40 | |
| 20260508071530 | 35 | 304 | 14.5 | 20.9 | 0.00 | 0.13 | 0.08 | 39 | |
| 20260508070027 | 35 | 149 | 8.0 | 20.9 | 0.00 | 0.13 | 0.08 | 42 | |
| 20260508064548 | 35 | 151 | 11.3 | 14.5 | 0.00 | 0.13 | 0.08 | 35 | |
| 20260508063018 | 35 | 182 | 3.2 | 9.7 | 0.00 | 0.13 | 0.08 | 39 | |
| 20260508061515 | 35 | 330 | 4.8 | 14.5 | 0.00 | 0.13 | 0.08 | 30 | |
| 20260508054542 | 34 | 171 | 9.7 | 11.3 | 0.00 | 0.13 | 0.08 | 33 | |
| 20260508053023 | 34 | 231 | 3.2 | 12.9 | 0.00 | 0.13 | 0.08 | 33 | |
| 20260508051523 | 33 | 12 | 6.4 | 17.7 | 0.00 | 0.13 | 0.08 | 40 | |
| 20260508050024 | 32 | 327 | 6.4 | 9.7 | 0.00 | 0.13 | 0.08 | 41 | |
| 20260508044544 | 32 | 1 | 3.2 | 6.4 | 0.00 | 0.13 | 0.08 | 46 | |
| 20260508043020 | 31 | 321 | 1.6 | 8.0 | 0.00 | 0.13 | 0.08 | 49 | |
| 20260508041520 | 30 | 203 | 4.8 | 11.3 | 0.00 | 0.13 | 0.08 | 57 | |
| 20260508040044 | 29 | 215 | 3.2 | 9.7 | 0.00 | 0.13 | 0.08 | 63 | |
| 20260508034544 | 28 | 227 | 8.0 | 9.7 | 0.00 | 0.13 | 0.08 | 65 | |
| 20260508033023 | 27 | 185 | 4.8 | 12.9 | 0.03 | 0.13 | 0.08 | 69 | |
| 20260508031520 | 27 | 209 | 6.4 | 6.4 | 0.03 | 0.13 | 0.08 | 73 | |
| 20260508030043 | 26 | 128 | 1.6 | 9.7 | 0.03 | 0.13 | 0.08 | 77 | |
| 20260508024519 | 25 | 172 | 4.8 | 11.3 | 0.03 | 0.13 | 0.08 | 80 | |
| 20260508023018 | 25 | 169 | 6.4 | 16.1 | 0.05 | 0.13 | 0.08 | 82 | |
| 20260508021542 | 24 | 176 | 11.3 | 12.9 | 0.00 | 0.08 | 0.00 | 81 | |
| 20260508020040 | 24 | 145 | 4.8 | 12.9 | 0.00 | 0.08 | 0.00 | 81 | |
| 20260508014516 | 23 | 243 | 8.0 | 8.0 | 0.00 | 0.08 | 0.00 | 81 |